SCP
0 0 -0 -0 -0 -0 -0 -0 -0 0 0 0 0 0 0 0 0 0 0 0 0 0 0 0 0 0 0 0 0 0 0 0 0 -0 -0 0 0 0 0 0 0 -0 0 0 -0 -0 -0
0 0 0 0 -0 -0 -0 -0 -0 0 0 0 0 0 0 0 0 0 0 0 0 0 0 0 0 0 0 0 0 0 0 0 0 -0 -0 0 0 0 0 0 -0 0 0 0 0 -0 -0
0 0 0 0 0 -0 -0 -0 -0 0 0 0 0 0 0 0 0 0 0 0 0 0 0 0 0 0 0 0 0 0 0 0 0 -0 0 0 0 0 0 0 0 0 0 -0 0 -0 -0
0 0 0 0 0 0 0 -0 -0 -0 -0 0 0 0 0 0 0 0 0 0 0 -0 -0 -0 0 0 0 0 0 0 0 0 0 -0 0 0 0 0 0 0 0 0 -0 0 -0 -0 -0
0 0 0 0 0 0 0 -0 -0 -0 -0 -0 -0 0 0 0 0 0 0 0 0 -0 -0 -0 0 0 0 0 0 0 0 0 0 0 0 0 0 0 0 0 0 0 0 0 0 -0 0
0 0 0 0 0 0 0 -0 -0 -0 0 0 -0 0 0 0 0 0 -0 -0 0 -0 -0 -0 0 0 0 0 0 0 0 0 0 0 0 0 0 0 0 0 0 0 -0 -0 0 0 0
0 0 0 0 0 0 0 0 0 -0 -0 -0 -0 0 -0 -0 -0 -0 -0 0 -0 0 -0 0 0 0 0 0 0 0 0 0 0 0 0 0 0 0 0 0 -0 0 -0 0 0 0 0
0 0 0 0 0 0 0 0 0 -0 -0 -0 -0 -0 -0 -0 0 -0 -0 0 0 0 0 -0 0 0 0 0 0 0 0 0 0 0 0 0 0 0 0 0 0 0 0 0 0 0 0
0 0 0 0 0 0 0 0 0 0 -0 -0 -0 -0 -0 -0 -0 -0 -0 0 0 0 0 0 -0 -0 0 -0 0 0 0 0 0 0 0 0 0 0 0 0 0 0 0 0 0 0 0
0 0 0 0 0 0 0 0 -0 0 -0 -0 -0 -0 -0 0 -0 -0 -0 0 0 -0 -0 0 0 0 0 -0 0 0 -0 0 0 0 0 0 0 0 0 0 0 0 0 0 0 0 0
0 0 0 0 0 0 0 0 0 0 0 -0 -0 -0 0 0 -0 0 0 0 0 -0 0 0 0 0 0 -0 0 0 -0 0 0 0 0 0 0 0 0 0 0 0 0 0 0 0 0
0 0 0 0 0 0 0 0 0 0 0 -0 -0 0 0 0 -0 -0 -0 0 -0 -0 0 0 0 0 -0 -0 0 0 0 0 0 0 0 0 0 0 0 0 0 0 0 0 0 0 0
0 0 0 0 0 0 0 -0 0 0 -0 -0 -0 0 0 0 -0 -0 -0 0 0 0 0 0 -0 -0 -0 0 0 0 -0 0 0 0 0 0 0 0 0 0 0 0 0 0 0 0 0
0 0 0 0 0 0 0 0 0 0 -0 -0 -0 0 0 0 0 0 -0 -0 -0 -0 0 0 0 0 -0 0 0 -0 -0 0 0 0 0 0 0 0 0 0 0 0 0 0 0 0 0
0 0 0 0 0 0 0 0 0 -0 -0 -0 -0 0 -0 0 0 0 -0 -0 0 -0 0 -0 0 0 0 0 0 0 -0 0 0 0 0 0 0 0 0 0 0 0 0 0 0 0 0
0 0 0 0 0 0 0 0 0 -0 -0 -0 -0 -0 0 -0 0 -0 -0 0 0 0 -0 0 0 0 0 0 0 0 0 0 0 0 0 0 0 0 0 0 0 0 0 0 0 0 0
0 0 0 0 0 0 0 0 0 -0 -0 -0 -0 -0 0 -0 -0 -0 -0 -0 -0 0 0 0 0 0 0 0 -0 0 0 0 0 0 0 0 0 -0 0 0 0 0 0 0 0 0 0
0 0 0 0 0 0 0 0 0 -0 -0 -0 -0 -0 0 0 -0 0 -0 -0 0 0 0 0 0 0 0 0 0 0 0 0 0 0 0 0 0 -0 -0 0 0 0 0 0 0 0 0
0 0 0 0 0 0 0 0 0 -0 -0 -0 -0 0 -0 0 -0 0 0 -0 -0 0 0 0 0 -0 -0 0 0 0 0 0 0 0 0 0 0 0 0 0 0 0 0 0 0 0 0
0 0 0 0 0 0 0 0 -0 -0 -0 -0 -0 0 -0 -0 -0 -0 0 -0 0 0 0 0 0 0 0 0 0 0 0 0 0 0 0 0 0 0 0 0 0 0 0 0 0 0 0
0 0 0 0 0 0 0 -0 -0 -0 -0 -0 -0 0 0 -0 -0 0 -0 -0 0 0 0 0 0 0 0 0 0 0 0 0 0 0 0 0 0 0 0 0 0 0 0 0 0 0 0
0 0 0 0 0 0 0 -0 -0 -0 -0 0 0 0 0 0 -0 -0 -0 0 -0 -0 0 -0 0 0 0 0 0 0 0 0 0 0 0 0 0 0 0 0 0 0 0 0 0 0 0
0 0 0 0 0 0 0 -0 -0 -0 -0 0 0 0 0 0 -0 -0 0 0 -0 -0 -0 -0 -0 0 0 0 0 0 0 0 0 0 0 0 0 0 0 0 0 0 0 0 0 0 0
0 0 0 0 -0 0 0 -0 -0 -0 -0 -0 0 0 0 0 0 0 0 0 0 0 0 0 0 0 0 0 0 0 0 0 0 0 0 0 0 0 0 0 0 0 0 0 0 0 0
0 0 0 -0 -0 -0 0 -0 -0 -0 -0 -0 0 0 0 0 0 0 0 0 0 0 0 0 0 0 0 0 0 0 0 0 0 0 0 0 0 0 0 0 0 0 0 0 0 0 0
0 0 0 -0 -0 0 0 -0 -0 -0 -0 -0 0 0 -0 0 0 0 0 0 0 0 0 0 0 0 0 0 0 0 0 0 0 0 0 0 0 0 0 0 0 0 0 0 0 0 0
0 0 0 -0 0 0 0 -0 -0 -0 -0 -0 0 -0 -0 -0 -0 0 0 0 0 0 0 0 0 0 0 0 0 0 0 0 0 0 0 0 0 0 0 0 0 0 0 0 0 0 0
0 0 0 -0 0 0 -0 -0 -0 -0 -0 -0 0 0 0 0 0 0 0 0 0 0 0 0 0 0 0 0 0 0 0 0 0 0 0 0 0 0 0 0 0 0 0 0 0 0 0
0 0 0 -0 -0 0 0 -0 -0 -0 -0 -0 0 0 0 0 0 0 0 0 0 0 0 0 0 0 0 0 0 0 0 0 0 0 0 0 0 0 0 0 0 0 0 0 0 0 0
Wind_Speed_500mb
36 34 33 34 34 35 36 37 38 36 32 30 29 29 28 26 23 23 24 23 23 17 15 13 10 7 9 14 11 13 14 24 40 43 40 37 37 36 28 28 22 24 11 11 24 19 29
40 39 38 39 38 39 40 42 42 39 35 32 27 27 28 25 25 24 26 23 18 15 13 11 8 10 11 28 4 6 18 35 41 37 39 37 29 31 24 24 28 22 14 15 22 29 31
44 45 44 43 41 40 40 41 39 36 33 32 29 26 25 24 24 25 24 18 15 12 11 9 9 13 18 8 10 18 26 32 38 35 37 34 23 21 21 24 31 9 19 18 18 30 28
46 47 48 46 44 43 41 39 37 35 32 30 28 25 23 22 22 21 16 13 9 8 8 7 9 11 11 10 16 24 28 28 30 30 29 28 22 32 25 12 27 28 33 27 33 22 22
48 51 51 50 48 45 40 38 38 36 34 29 26 23 22 18 18 13 10 8 2 8 7 10 8 14 13 23 26 28 29 32 28 26 23 24 21 35 27 19 28 29 29 24 21 29 23
51 55 55 53 49 44 41 38 36 36 35 32 26 21 18 13 8 7 9 10 15 15 14 13 10 16 20 32 33 28 28 28 31 27 22 27 24 28 23 29 32 37 38 31 28 26 17
49 53 56 53 48 45 40 34 37 40 38 33 24 16 11 4 2 4 6 6 4 8 23 15 29 13 28 35 31 29 28 32 31 30 28 37 26 32 39 43 41 30 30 19 27 31 26
49 50 54 52 48 44 36 36 41 44 39 27 18 11 5 9 9 11 7 11 12 9 17 22 13 8 17 28 32 34 34 29 30 31 39 24 34 32 30 31 26 38 33 26 24 29 31
50 49 53 52 47 40 32 35 41 38 34 27 20 11 5 15 9 4 4 5 10 9 17 20 26 27 30 32 29 43 41 35 30 37 40 28 29 29 26 29 25 29 26 30 25 21 28
53 50 51 52 47 40 31 34 39 33 29 31 25 15 10 15 6 2 4 6 11 8 12 24 23 15 28 33 29 34 43 29 22 36 29 30 26 25 25 28 35 33 32 31 26 29 23
51 52 50 50 46 40 32 32 38 30 20 22 25 18 8 6 2 8 6 11 9 7 12 29 29 27 30 34 38 34 38 31 25 27 22 31 24 27 33 32 33 22 19 11 24 30 35
47 51 48 50 45 39 33 32 34 32 15 15 18 15 4 4 8 11 12 11 4 15 5 17 17 26 28 33 24 37 34 26 23 27 28 29 25 27 32 27 30 8 18 28 26 27 25
45 46 48 47 46 37 32 31 31 28 20 11 11 16 9 5 12 13 8 12 16 11 5 19 22 33 35 24 17 29 35 34 22 27 28 18 25 27 18 31 22 18 26 20 23 23 23
47 41 46 43 44 39 31 31 30 24 17 10 10 15 12 12 15 15 13 22 13 34 16 7 8 32 27 29 20 32 28 29 15 34 30 25 33 21 24 35 20 33 39 24 24 27 28
45 38 44 41 42 38 30 30 30 23 19 16 18 11 4 14 13 10 24 22 13 18 8 12 23 19 18 9 8 20 29 26 8 13 16 29 20 20 7 21 17 35 41 47 24 30 29
45 38 41 41 40 37 31 30 31 26 20 16 14 16 8 14 12 14 26 11 9 9 14 19 25 18 25 29 18 21 9 8 8 10 25 6 22 28 23 21 28 27 26 37 18 32 31
45 41 39 40 40 37 29 30 32 28 21 12 12 16 4 9 12 34 11 18 9 11 8 17 2 10 14 22 23 10 6 11 6 7 19 19 9 22 13 27 33 23 20 23 29 31 25
47 42 39 39 38 36 28 29 33 30 18 6 18 13 5 8 28 10 9 6 2 5 1 5 10 3 10 5 10 12 20 17 5 14 16 4 13 20 30 12 10 24 21 28 22 32 28
48 42 37 35 36 34 27 27 29 27 19 5 14 6 7 9 15 10 10 13 12 3 7 1 4 9 10 15 4 4 13 6 1 5 7 4 18 14 12 14 11 22 22 23 30 32 25
48 38 35 32 33 32 25 23 26 22 17 3 11 7 10 3 12 5 9 5 10 3 7 4 1 8 14 14 6 11 13 7 8 6 8 11 27 20 11 16 15 33 16 25 30 24 23
42 35 27 27 29 28 21 18 22 17 16 6 4 8 8 4 9 8 4 2 6 7 5 4 4 10 11 11 12 15 14 15 11 5 6 10 21 10 8 5 15 4 13 15 28 32 32
37 27 24 24 28 25 19 16 20 16 7 3 12 5 6 9 1 12 7 6 8 10 5 6 4 10 10 14 1 15 15 14 10 8 5 8 15 10 20 12 14 16 19 16 18 17 12
30 27 27 25 28 25 19 12 17 14 10 6 5 4 10 13 7 16 12 7 10 11 9 10 4 9 10 13 14 17 11 6 8 14 9 12 18 13 27 22 17 28 29 25 23 19 22
25 26 26 23 25 24 19 8 11 16 11 11 6 6 11 6 5 12 6 7 10 5 6 8 2 5 8 8 6 7 7 3 4 5 10 9 16 17 22 14 25 1 16 15 25 16 7
25 22 21 18 19 19 16 4 5 11 15 16 11 6 9 5 12 9 9 10 13 12 8 6 9 7 12 9 11 8 11 11 18 10 11 10 14 13 21 19 9 12 9 9 17 17 13
21 19 21 19 17 16 15 8 1 6 10 13 12 9 8 9 9 8 7 9 9 12 10 12 7 5 9 17 12 11 11 11 7 12 13 13 15 14 11 23 24 34 20 9 9 18 25
19 17 16 15 16 13 12 11 2 3 6 8 7 9 5 16 15 4 5 3 5 8 7 23 13 11 12 16 11 7 7 7 4 10 10 15 15 21 18 14 4 16 19 11 17 10 39
18 18 14 12 11 9 8 8 6 4 4 6 5 6 5 10 11 2 3 5 5 12 14 25 13 15 14 12 9 7 7 5 3 14 11 11 11 12 17 25 24 24 16 10 14 12 19
19 17 12 10 9 6 4 5 5 6 6 9 3 10 2 7 12 1 1 3 4 7 20 9 15 8 6 9 3 4 3 8 13 6 14 9 10 8 7 8 11 12 9 15 10 19 16
Wind_Direction_500mb
12 6 1 356 354 351 351 347 344 340 338 337 334 330 329 327 323 320 312 302 291 275 260 262 262 220 196 221 253 269 220 185 172 175 193 196 199 208 221 208 193 217 158 147 121 142 129
10 4 358 355 352 349 344 340 338 337 334 333 329 327 324 323 318 320 314 304 286 266 253 248 233 219 209 248 258 242 162 171 173 181 193 196 203 214 265 221 207 202 163 136 159 132 130
8 4 0 356 352 346 341 338 337 336 333 331 327 325 321 319 317 321 318 307 284 256 240 224 219 215 250 313 165 147 158 165 176 183 190 199 213 209 232 220 212 210 206 190 180 152 146
7 5 2 357 350 345 341 338 338 337 336 332 330 325 319 320 318 324 331 319 283 242 212 202 189 186 258 193 174 159 156 166 178 186 202 201 214 224 254 211 198 221 234 186 153 197 159
6 6 2 357 353 350 347 344 343 341 337 333 329 325 320 324 322 330 346 13 351 194 177 157 127 199 208 168 168 166 167 170 168 178 193 194 220 218 214 223 209 212 203 203 149 165 166
5 6 2 360 359 355 352 350 350 348 343 336 331 324 325 327 324 340 90 84 87 115 140 150 247 219 200 191 172 166 165 174 174 171 179 202 215 219 224 215 204 192 235 180 143 171 150
4 4 2 1 1 358 356 360 356 350 343 338 338 331 333 342 331 133 151 330 177 165 213 270 180 278 150 169 165 177 175 166 180 191 200 199 215 211 207 211 226 215 213 191 135 144 134
4 2 3 2 1 1 2 1 359 356 355 353 353 358 6 141 105 111 87 263 21 331 246 221 218 228 148 169 180 182 175 184 192 201 212 184 222 209 224 219 248 261 208 163 123 165 120
3 2 2 2 1 2 3 0 1 5 9 16 10 23 77 156 143 117 335 4 335 317 250 165 192 200 186 192 189 181 190 199 195 207 207 209 203 222 220 212 216 247 200 132 176 164 130
2 0 0 1 1 359 0 360 360 5 17 27 27 28 111 162 165 170 211 314 325 295 260 141 191 190 176 201 178 178 199 206 200 212 200 229 226 195 210 205 219 206 221 164 151 187 169
358 359 358 0 1 359 356 357 356 358 11 21 28 28 125 202 251 267 273 313 293 244 235 148 153 152 177 215 135 175 197 227 220 212 204 211 202 189 213 217 208 232 183 242 185 220 133
352 355 356 358 359 359 356 354 356 360 351 10 27 26 42 305 266 281 294 295 243 232 136 147 155 190 187 215 182 154 192 235 255 218 202 233 203 199 211 220 198 46 157 198 233 238 238
347 352 354 356 356 358 356 352 353 357 358 352 8 6 321 246 308 294 280 231 219 256 205 137 201 178 199 180 169 170 194 202 204 188 196 214 186 185 280 201 185 197 202 192 209 216 225
347 349 352 353 353 354 356 355 351 349 352 348 339 336 320 341 295 280 257 242 241 267 50 48 270 194 200 153 171 185 193 198 226 234 184 185 189 185 201 246 184 209 216 209 194 204 203
345 344 351 350 351 350 352 355 355 339 327 314 323 322 325 324 304 259 258 257 298 25 7 247 202 202 146 113 183 191 200 185 139 286 321 185 167 120 257 241 255 195 234 235 270 218 214
347 343 348 346 347 348 347 354 354 349 326 309 316 275 245 314 297 262 249 18 76 8 274 235 196 218 185 185 199 203 181 21 158 250 284 335 122 187 174 222 246 264 239 242 241 257 207
343 341 341 342 344 346 345 350 353 349 329 303 276 254 142 311 271 253 284 70 104 72 306 310 276 168 316 168 196 159 39 104 303 306 292 311 267 161 183 207 211 213 241 252 255 254 218
340 335 336 340 343 345 345 352 353 352 341 287 281 259 27 282 257 301 103 40 311 50 53 94 310 33 256 315 241 149 148 25 17 314 257 261 276 170 196 68 317 301 263 235 242 231 269
332 333 333 339 342 345 346 351 356 357 358 294 269 336 17 267 268 118 118 95 43 36 23 40 119 304 245 181 238 41 115 81 27 316 10 319 260 146 194 191 213 242 230 270 262 269 267
330 328 330 340 342 346 348 352 358 360 354 301 274 220 120 6 354 69 164 153 131 59 74 28 118 242 189 187 183 175 139 124 111 63 327 289 273 272 16 4 219 205 226 239 268 245 249
332 332 332 338 344 348 351 350 357 358 1 306 276 63 2 71 95 66 262 11 161 147 159 275 137 279 246 213 187 170 147 152 175 135 246 279 262 255 112 1 337 30 204 219 245 259 271
337 332 330 337 345 348 354 352 1 5 38 347 331 306 159 87 99 251 161 77 111 123 302 106 155 189 228 253 314 168 205 204 186 178 235 258 266 254 260 194 256 249 225 245 255 266 278
332 330 333 342 345 351 359 353 9 18 21 22 41 52 291 123 203 259 62 83 110 123 30 51 67 144 111 57 350 38 27 44 42 271 219 277 261 217 247 219 266 249 241 228 240 224 244
333 325 334 340 346 353 358 351 16 31 45 25 4 309 278 114 281 30 120 144 130 41 128 103 348 325 85 176 181 207 199 180 228 238 275 248 248 246 259 158 237 27 350 231 228 177 230
325 315 329 332 343 355 355 350 20 29 55 50 22 345 321 347 46 157 178 137 142 150 147 143 59 52 163 221 223 193 196 213 216 220 244 257 255 229 255 215 217 164 180 192 208 178 222
318 312 325 330 341 356 356 0 36 38 54 62 19 29 314 308 98 49 187 210 214 182 161 124 141 156 219 264 232 243 239 163 173 172 237 217 253 284 220 259 249 62 127 157 207 250 182
311 308 322 330 342 356 357 0 356 26 52 83 347 31 320 295 99 223 308 302 264 310 272 138 168 206 235 260 237 229 328 64 305 278 156 209 232 228 241 257 132 99 108 130 205 67 165
301 295 311 319 342 351 356 358 11 37 42 93 286 348 19 301 97 299 334 270 223 261 284 104 190 213 218 253 254 169 199 172 170 272 301 215 208 219 242 249 236 136 145 213 48 115 137
287 286 293 308 331 325 336 352 8 31 48 87 329 349 40 251 31 101 288 237 273 311 301 177 300 329 312 256 203 282 159 223 227 243 201 267 249 267 271 45 86 149 56 113 135 129 137
Wind_Speed_850mb
36 34 33 34 34 35 36 37 38 36 32 30 29 29 28 26 23 23 24 23 23 17 15 13 10 7 9 14 11 13 14 24 40 43 40 37 37 36 28 28 22 24 11 11 24 19 29
40 39 38 39 38 39 40 42 42 39 35 32 27 27 28 25 25 24 26 23 18 15 13 11 8 10 11 28 4 6 18 35 41 37 39 37 29 31 24 24 28 22 14 15 22 29 31
44 45 44 43 41 40 40 41 39 36 33 32 29 26 25 24 24 25 24 18 15 12 11 9 9 13 18 8 10 18 26 32 38 35 37 34 23 21 21 24 31 9 19 18 18 30 28
46 47 48 46 44 43 41 39 37 35 32 30 28 25 23 22 22 21 16 13 9 8 8 7 9 11 11 10 16 24 28 28 30 30 29 28 22 32 25 12 27 28 33 27 33 22 22
48 51 51 50 48 45 40 38 38 36 34 29 26 23 22 18 18 13 10 8 2 8 7 10 8 14 13 23 26 28 29 32 28 26 23 24 21 35 27 19 28 29 29 24 21 29 23
51 55 55 53 49 44 41 38 36 36 35 32 26 21 18 13 8 7 9 10 15 15 14 13 10 16 20 32 33 28 28 28 31 27 22 27 24 28 23 29 32 37 38 31 28 26 17
49 53 56 53 48 45 40 34 37 40 38 33 24 16 11 4 2 4 6 6 4 8 23 15 29 13 28 35 31 29 28 32 31 30 28 37 26 32 39 43 41 30 30 19 27 31 26
49 50 54 52 48 44 36 36 41 44 39 27 18 11 5 9 9 11 7 11 12 9 17 22 13 8 17 28 32 34 34 29 30 31 39 24 34 32 30 31 26 38 33 26 24 29 31
50 49 53 52 47 40 32 35 41 38 34 27 20 11 5 15 9 4 4 5 10 9 17 20 26 27 30 32 29 43 41 35 30 37 40 28 29 29 26 29 25 29 26 30 25 21 28
53 50 51 52 47 40 31 34 39 33 29 31 25 15 10 15 6 2 4 6 11 8 12 24 23 15 28 33 29 34 43 29 22 36 29 30 26 25 25 28 35 33 32 31 26 29 23
51 52 50 50 46 40 32 32 38 30 20 22 25 18 8 6 2 8 6 11 9 7 12 29 29 27 30 34 38 34 38 31 25 27 22 31 24 27 33 32 33 22 19 11 24 30 35
47 51 48 50 45 39 33 32 34 32 15 15 18 15 4 4 8 11 12 11 4 15 5 17 17 26 28 33 24 37 34 26 23 27 28 29 25 27 32 27 30 8 18 28 26 27 25
45 46 48 47 46 37 32 31 31 28 20 11 11 16 9 5 12 13 8 12 16 11 5 19 22 33 35 24 17 29 35 34 22 27 28 18 25 27 18 31 22 18 26 20 23 23 23
47 41 46 43 44 39 31 31 30 24 17 10 10 15 12 12 15 15 13 22 13 34 16 7 8 32 27 29 20 32 28 29 15 34 30 25 33 21 24 35 20 33 39 24 24 27 28
45 38 44 41 42 38 30 30 30 23 19 16 18 11 4 14 13 10 24 22 13 18 8 12 23 19 18 9 8 20 29 26 8 13 16 29 20 20 7 21 17 35 41 47 24 30 29
45 38 41 41 40 37 31 30 31 26 20 16 14 16 8 14 12 14 26 11 9 9 14 19 25 18 25 29 18 21 9 8 8 10 25 6 22 28 23 21 28 27 26 37 18 32 31
45 41 39 40 40 37 29 30 32 28 21 12 12 16 4 9 12 34 11 18 9 11 8 17 2 10 14 22 23 10 6 11 6 7 19 19 9 22 13 27 33 23 20 23 29 31 25
47 42 39 39 38 36 28 29 33 30 18 6 18 13 5 8 28 10 9 6 2 5 1 5 10 3 10 5 10 12 20 17 5 14 16 4 13 20 30 12 10 24 21 28 22 32 28
48 42 37 35 36 34 27 27 29 27 19 5 14 6 7 9 15 10 10 13 12 3 7 1 4 9 10 15 4 4 13 6 1 5 7 4 18 14 12 14 11 22 22 23 30 32 25
48 38 35 32 33 32 25 23 26 22 17 3 11 7 10 3 12 5 9 5 10 3 7 4 1 8 14 14 6 11 13 7 8 6 8 11 27 20 11 16 15 33 16 25 30 24 23
42 35 27 27 29 28 21 18 22 17 16 6 4 8 8 4 9 8 4 2 6 7 5 4 4 10 11 11 12 15 14 15 11 5 6 10 21 10 8 5 15 4 13 15 28 32 32
37 27 24 24 28 25 19 16 20 16 7 3 12 5 6 9 1 12 7 6 8 10 5 6 4 10 10 14 1 15 15 14 10 8 5 8 15 10 20 12 14 16 19 16 18 17 12
30 27 27 25 28 25 19 12 17 14 10 6 5 4 10 13 7 16 12 7 10 11 9 10 4 9 10 13 14 17 11 6 8 14 9 12 18 13 27 22 17 28 29 25 23 19 22
25 26 26 23 25 24 19 8 11 16 11 11 6 6 11 6 5 12 6 7 10 5 6 8 2 5 8 8 6 7 7 3 4 5 10 9 16 17 22 14 25 1 16 15 25 16 7
25 22 21 18 19 19 16 4 5 11 15 16 11 6 9 5 12 9 9 10 13 12 8 6 9 7 12 9 11 8 11 11 18 10 11 10 14 13 21 19 9 12 9 9 17 17 13
21 19 21 19 17 16 15 8 1 6 10 13 12 9 8 9 9 8 7 9 9 12 10 12 7 5 9 17 12 11 11 11 7 12 13 13 15 14 11 23 24 34 20 9 9 18 25
19 17 16 15 16 13 12 11 2 3 6 8 7 9 5 16 15 4 5 3 5 8 7 23 13 11 12 16 11 7 7 7 4 10 10 15 15 21 18 14 4 16 19 11 17 10 39
18 18 14 12 11 9 8 8 6 4 4 6 5 6 5 10 11 2 3 5 5 12 14 25 13 15 14 12 9 7 7 5 3 14 11 11 11 12 17 25 24 24 16 10 14 12 19
19 17 12 10 9 6 4 5 5 6 6 9 3 10 2 7 12 1 1 3 4 7 20 9 15 8 6 9 3 4 3 8 13 6 14 9 10 8 7 8 11 12 9 15 10 19 16
Wind_Direction_850mb
12 6 1 356 354 351 351 347 344 340 338 337 334 330 329 327 323 320 312 302 291 275 260 262 262 220 196 221 253 269 220 185 172 175 193 196 199 208 221 208 193 217 158 147 121 142 129
10 4 358 355 352 349 344 340 338 337 334 333 329 327 324 323 318 320 314 304 286 266 253 248 233 219 209 248 258 242 162 171 173 181 193 196 203 214 265 221 207 202 163 136 159 132 130
8 4 0 356 352 346 341 338 337 336 333 331 327 325 321 319 317 321 318 307 284 256 240 224 219 215 250 313 165 147 158 165 176 183 190 199 213 209 232 220 212 210 206 190 180 152 146
7 5 2 357 350 345 341 338 338 337 336 332 330 325 319 320 318 324 331 319 283 242 212 202 189 186 258 193 174 159 156 166 178 186 202 201 214 224 254 211 198 221 234 186 153 197 159
6 6 2 357 353 350 347 344 343 341 337 333 329 325 320 324 322 330 346 13 351 194 177 157 127 199 208 168 168 166 167 170 168 178 193 194 220 218 214 223 209 212 203 203 149 165 166
5 6 2 360 359 355 352 350 350 348 343 336 331 324 325 327 324 340 90 84 87 115 140 150 247 219 200 191 172 166 165 174 174 171 179 202 215 219 224 215 204 192 235 180 143 171 150
4 4 2 1 1 358 356 360 356 350 343 338 338 331 333 342 331 133 151 330 177 165 213 270 180 278 150 169 165 177 175 166 180 191 200 199 215 211 207 211 226 215 213 191 135 144 134
4 2 3 2 1 1 2 1 359 356 355 353 353 358 6 141 105 111 87 263 21 331 246 221 218 228 148 169 180 182 175 184 192 201 212 184 222 209 224 219 248 261 208 163 123 165 120
3 2 2 2 1 2 3 0 1 5 9 16 10 23 77 156 143 117 335 4 335 317 250 165 192 200 186 192 189 181 190 199 195 207 207 209 203 222 220 212 216 247 200 132 176 164 130
2 0 0 1 1 359 0 360 360 5 17 27 27 28 111 162 165 170 211 314 325 295 260 141 191 190 176 201 178 178 199 206 200 212 200 229 226 195 210 205 219 206 221 164 151 187 169
358 359 358 0 1 359 356 357 356 358 11 21 28 28 125 202 251 267 273 313 293 244 235 148 153 152 177 215 135 175 197 227 220 212 204 211 202 189 213 217 208 232 183 242 185 220 133
352 355 356 358 359 359 356 354 356 360 351 10 27 26 42 305 266 281 294 295 243 232 136 147 155 190 187 215 182 154 192 235 255 218 202 233 203 199 211 220 198 46 157 198 233 238 238
347 352 354 356 356 358 356 352 353 357 358 352 8 6 321 246 308 294 280 231 219 256 205 137 201 178 199 180 169 170 194 202 204 188 196 214 186 185 280 201 185 197 202 192 209 216 225
347 349 352 353 353 354 356 355 351 349 352 348 339 336 320 341 295 280 257 242 241 267 50 48 270 194 200 153 171 185 193 198 226 234 184 185 189 185 201 246 184 209 216 209 194 204 203
345 344 351 350 351 350 352 355 355 339 327 314 323 322 325 324 304 259 258 257 298 25 7 247 202 202 146 113 183 191 200 185 139 286 321 185 167 120 257 241 255 195 234 235 270 218 214
347 343 348 346 347 348 347 354 354 349 326 309 316 275 245 314 297 262 249 18 76 8 274 235 196 218 185 185 199 203 181 21 158 250 284 335 122 187 174 222 246 264 239 242 241 257 207
343 341 341 342 344 346 345 350 353 349 329 303 276 254 142 311 271 253 284 70 104 72 306 310 276 168 316 168 196 159 39 104 303 306 292 311 267 161 183 207 211 213 241 252 255 254 218
340 335 336 340 343 345 345 352 353 352 341 287 281 259 27 282 257 301 103 40 311 50 53 94 310 33 256 315 241 149 148 25 17 314 257 261 276 170 196 68 317 301 263 235 242 231 269
332 333 333 339 342 345 346 351 356 357 358 294 269 336 17 267 268 118 118 95 43 36 23 40 119 304 245 181 238 41 115 81 27 316 10 319 260 146 194 191 213 242 230 270 262 269 267
330 328 330 340 342 346 348 352 358 360 354 301 274 220 120 6 354 69 164 153 131 59 74 28 118 242 189 187 183 175 139 124 111 63 327 289 273 272 16 4 219 205 226 239 268 245 249
332 332 332 338 344 348 351 350 357 358 1 306 276 63 2 71 95 66 262 11 161 147 159 275 137 279 246 213 187 170 147 152 175 135 246 279 262 255 112 1 337 30 204 219 245 259 271
337 332 330 337 345 348 354 352 1 5 38 347 331 306 159 87 99 251 161 77 111 123 302 106 155 189 228 253 314 168 205 204 186 178 235 258 266 254 260 194 256 249 225 245 255 266 278
332 330 333 342 345 351 359 353 9 18 21 22 41 52 291 123 203 259 62 83 110 123 30 51 67 144 111 57 350 38 27 44 42 271 219 277 261 217 247 219 266 249 241 228 240 224 244
333 325 334 340 346 353 358 351 16 31 45 25 4 309 278 114 281 30 120 144 130 41 128 103 348 325 85 176 181 207 199 180 228 238 275 248 248 246 259 158 237 27 350 231 228 177 230
325 315 329 332 343 355 355 350 20 29 55 50 22 345 321 347 46 157 178 137 142 150 147 143 59 52 163 221 223 193 196 213 216 220 244 257 255 229 255 215 217 164 180 192 208 178 222
318 312 325 330 341 356 356 0 36 38 54 62 19 29 314 308 98 49 187 210 214 182 161 124 141 156 219 264 232 243 239 163 173 172 237 217 253 284 220 259 249 62 127 157 207 250 182
311 308 322 330 342 356 357 0 356 26 52 83 347 31 320 295 99 223 308 302 264 310 272 138 168 206 235 260 237 229 328 64 305 278 156 209 232 228 241 257 132 99 108 130 205 67 165
301 295 311 319 342 351 356 358 11 37 42 93 286 348 19 301 97 299 334 270 223 261 284 104 190 213 218 253 254 169 199 172 170 272 301 215 208 219 242 249 236 136 145 213 48 115 137
287 286 293 308 331 325 336 352 8 31 48 87 329 349 40 251 31 101 288 237 273 311 301 177 300 329 312 256 203 282 159 223 227 243 201 267 249 267 271 45 86 149 56 113 135 129 137